BAW725 EGLL-LOWW

Flight info

Callsign BAW725
Flight time 1h 37m
Altitude 39000
Route DET L6 DVR UL9 KONAN DCT KOK DCT MATUG DCT GUBAX DCT BARSU DCT EKSOS DCT LULAR DCT RUDAP DCT BUDEX BUDEX2W
Aircraft B77W/H-SDE1E2E3FGHIJ2J3J4J5M1RWXY/LB1D1

Departure

Time 2026-04-21 16:38
Airport London Heathrow Airport (EGLL)

Arrival

Time 2026-04-21 18:15
Airport Vienna International Airport (LOWW)
Time Latitude Longitude Altitude Speed Heading
2026-04-21 16:16 51.47213 -0.48020 94 ft 0 kts 270°
2026-04-21 16:29 51.47213 -0.48016 90 ft 3 kts 270°
2026-04-21 16:29 51.47213 -0.47974 90 ft 4 kts 270°
2026-04-21 16:29 51.47213 -0.47937 90 ft 4 kts 265°
2026-04-21 16:29 51.47220 -0.47899 91 ft 4 kts 226°
2026-04-21 16:30 51.47241 -0.47878 91 ft 4 kts 191°
2026-04-21 16:30 51.47268 -0.47874 91 ft 4 kts 179°
2026-04-21 16:30 51.47294 -0.47874 91 ft 4 kts 180°
2026-04-21 16:30 51.47310 -0.47874 92 ft 0 kts 180°
2026-04-21 16:32 51.47308 -0.47874 92 ft 1 kts 180°
2026-04-21 16:32 51.47280 -0.47874 92 ft 10 kts 179°
2026-04-21 16:32 51.47204 -0.47873 93 ft 11 kts 179°
2026-04-21 16:33 51.47122 -0.47870 90 ft 12 kts 179°
2026-04-21 16:33 51.47036 -0.47867 90 ft 13 kts 178°
2026-04-21 16:33 51.46945 -0.47867 92 ft 13 kts 183°
2026-04-21 16:33 51.46852 -0.47869 90 ft 14 kts 180°
2026-04-21 16:34 51.46756 -0.47869 90 ft 14 kts 179°
2026-04-21 16:34 51.46674 -0.47895 92 ft 12 kts 225°
2026-04-21 16:34 51.46654 -0.48026 89 ft 12 kts 268°
2026-04-21 16:34 51.46653 -0.48161 91 ft 11 kts 267°
2026-04-21 16:35 51.46654 -0.48287 93 ft 11 kts 271°
2026-04-21 16:35 51.46653 -0.48410 95 ft 9 kts 260°
2026-04-21 16:35 51.46617 -0.48461 97 ft 6 kts 194°
2026-04-21 16:35 51.46577 -0.48467 95 ft 6 kts 183°
2026-04-21 16:36 51.46525 -0.48467 93 ft 9 kts 174°
2026-04-21 16:36 51.46481 -0.48398 94 ft 10 kts 99°
2026-04-21 16:36 51.46480 -0.48297 92 ft 0 kts 89°
2026-04-21 16:37 51.46480 -0.48223 92 ft 11 kts 90°
2026-04-21 16:37 51.46481 -0.48053 89 ft 36 kts 90°
2026-04-21 16:37 51.46483 -0.47216 91 ft 102 kts 90°
2026-04-21 16:37 51.46493 -0.45739 296 ft 147 kts 85°
2026-04-21 16:38 51.46548 -0.43971 1049 ft 172 kts 85°
2026-04-21 16:38 51.46537 -0.42097 2459 ft 171 kts 97°
2026-04-21 16:38 51.45983 -0.40202 3064 ft 210 kts 123°
2026-04-21 16:38 51.44865 -0.38403 3625 ft 236 kts 127°
2026-04-21 16:39 51.44188 -0.36072 4654 ft 232 kts 99°
2026-04-21 16:39 51.43828 -0.33502 5613 ft 241 kts 104°
2026-04-21 16:39 51.43314 -0.30926 6206 ft 245 kts 107°
2026-04-21 16:39 51.42754 -0.28328 6280 ft 248 kts 106°
2026-04-21 16:40 51.42337 -0.25651 6300 ft 249 kts 100°
2026-04-21 16:40 51.41997 -0.22938 6530 ft 250 kts 100°
2026-04-21 16:40 51.41646 -0.20230 7696 ft 248 kts 101°
2026-04-21 16:40 51.41280 -0.17489 8837 ft 257 kts 101°
2026-04-21 16:41 51.41029 -0.15633 9665 ft 260 kts 101°
2026-04-21 16:41 51.40490 -0.11673 9959 ft 276 kts 101°
2026-04-21 16:41 51.40075 -0.08670 10694 ft 276 kts 101°
2026-04-21 16:41 51.39673 -0.05764 12085 ft 270 kts 101°
2026-04-21 16:42 51.39264 -0.02807 13199 ft 277 kts 102°
2026-04-21 16:42 51.38825 0.00365 13684 ft 306 kts 102°
2026-04-21 16:42 51.38339 0.03863 14040 ft 339 kts 101°
2026-04-21 16:42 51.37802 0.07718 14370 ft 368 kts 102°
2026-04-21 16:43 51.37228 0.11808 15104 ft 383 kts 102°
2026-04-21 16:43 51.36608 0.16014 16140 ft 388 kts 103°
2026-04-21 16:43 51.35927 0.20203 17387 ft 391 kts 103°
2026-04-21 16:43 51.35216 0.24459 18319 ft 401 kts 103°
2026-04-21 16:44 51.34483 0.28830 19065 ft 414 kts 103°
2026-04-21 16:44 51.33725 0.33358 19662 ft 429 kts 102°
2026-04-21 16:44 51.32944 0.38046 20249 ft 442 kts 103°
2026-04-21 16:44 51.32148 0.42829 21319 ft 449 kts 102°
2026-04-21 16:45 51.31349 0.47634 22098 ft 458 kts 102°
2026-04-21 16:45 51.30522 0.52603 22848 ft 467 kts 101°
2026-04-21 16:45 51.29677 0.57679 23507 ft 477 kts 101°
2026-04-21 16:45 51.28812 0.62857 24131 ft 488 kts 101°
2026-04-21 16:46 51.27928 0.68127 24715 ft 495 kts 101°
2026-04-21 16:46 51.27029 0.73460 25391 ft 499 kts 101°
2026-04-21 16:46 51.26120 0.78830 26071 ft 504 kts 101°
2026-04-21 16:46 51.25195 0.84252 26679 ft 509 kts 102°
2026-04-21 16:47 51.24254 0.89737 27251 ft 515 kts 101°
2026-04-21 16:47 51.23313 0.95279 27802 ft 521 kts 101°
2026-04-21 16:47 51.22360 1.00881 28427 ft 525 kts 101°
2026-04-21 16:47 51.21394 1.06531 28950 ft 531 kts 101°
2026-04-21 16:48 51.20413 1.12236 29415 ft 537 kts 101°
2026-04-21 16:48 51.19426 1.17939 29862 ft 543 kts 101°
2026-04-21 16:48 51.18415 1.23773 30298 ft 548 kts 101°
2026-04-21 16:48 51.17396 1.29635 30780 ft 549 kts 101°
2026-04-21 16:49 51.16498 1.35512 31464 ft 542 kts 97°
2026-04-21 16:49 51.15915 1.41398 32230 ft 533 kts 90°
2026-04-21 16:49 51.15647 1.47230 33046 ft 525 kts 89°
2026-04-21 16:49 51.15413 1.53008 33762 ft 521 kts 89°
2026-04-21 16:50 51.15170 1.58755 34368 ft 519 kts 90°
2026-04-21 16:50 51.14909 1.64478 34855 ft 518 kts 90°
2026-04-21 16:50 51.14632 1.70185 35378 ft 515 kts 91°
2026-04-21 16:50 51.14347 1.75858 35911 ft 512 kts 91°
2026-04-21 16:51 51.14058 1.81490 36446 ft 509 kts 91°
2026-04-21 16:51 51.13769 1.87103 36956 ft 507 kts 92°
2026-04-21 16:51 51.13482 1.92675 37498 ft 503 kts 92°
2026-04-21 16:51 51.13198 1.98131 38062 ft 499 kts 92°
2026-04-21 16:52 51.12909 2.03623 38539 ft 497 kts 92°
2026-04-21 16:52 51.12618 2.09106 38931 ft 497 kts 92°
2026-04-21 16:52 51.12420 2.12807 39126 ft 497 kts 92°
2026-04-21 16:53 51.11726 2.25658 39261 ft 503 kts 93°
2026-04-21 16:53 51.11116 2.36706 39256 ft 497 kts 92°
2026-04-21 16:54 51.10505 2.47607 39257 ft 493 kts 93°
2026-04-21 16:54 51.09890 2.58452 39259 ft 491 kts 93°
2026-04-21 16:55 51.09186 2.67415 39249 ft 493 kts 99°
2026-04-21 16:55 51.07489 2.78002 39259 ft 495 kts 103°
2026-04-21 16:56 51.05669 2.88575 39275 ft 497 kts 103°
2026-04-21 16:56 51.03861 2.99199 39267 ft 499 kts 103°
2026-04-21 16:57 51.02066 3.09854 39259 ft 500 kts 103°
2026-04-21 16:57 51.00268 3.20524 39251 ft 501 kts 103°
2026-04-21 16:58 50.98468 3.31133 39258 ft 501 kts 103°
2026-04-21 16:58 50.96645 3.41800 39241 ft 501 kts 103°
2026-04-21 16:59 50.94811 3.52465 39241 ft 500 kts 103°
2026-04-21 16:59 50.92972 3.63092 39242 ft 500 kts 103°
2026-04-21 17:00 50.91119 3.73741 39256 ft 505 kts 103°
2026-04-21 17:00 50.89221 3.84593 39253 ft 517 kts 103°
2026-04-21 17:01 50.87271 3.95665 39251 ft 526 kts 104°
2026-04-21 17:01 50.85285 4.06860 39241 ft 530 kts 104°
2026-04-21 17:02 50.83283 4.18072 39224 ft 523 kts 104°
2026-04-21 17:02 50.82301 4.23536 39221 ft 509 kts 104°
2026-04-21 17:02 50.81343 4.28850 39221 ft 499 kts 104°
2026-04-21 17:03 50.79442 4.39378 39231 ft 498 kts 104°
2026-04-21 17:03 50.77535 4.49898 39238 ft 498 kts 104°
2026-04-21 17:04 50.75628 4.60347 39239 ft 499 kts 104°
2026-04-21 17:04 50.73692 4.70886 39239 ft 500 kts 104°
2026-04-21 17:05 50.71743 4.81434 39230 ft 501 kts 104°
2026-04-21 17:05 50.69782 4.91983 39236 ft 501 kts 104°
2026-04-21 17:06 50.67811 5.02529 39236 ft 501 kts 104°
2026-04-21 17:06 50.65832 5.13058 39234 ft 501 kts 104°
2026-04-21 17:07 50.63844 5.23578 39231 ft 501 kts 104°
2026-04-21 17:07 50.61846 5.34094 39235 ft 500 kts 104°
2026-04-21 17:08 50.59854 5.44515 39228 ft 500 kts 105°
2026-04-21 17:08 50.57842 5.54986 39239 ft 500 kts 105°
2026-04-21 17:09 50.54799 5.70717 39502 ft 502 kts 105°
2026-04-21 17:09 50.53779 5.75957 39821 ft 501 kts 105°
2026-04-21 17:09 50.52758 5.81187 40152 ft 499 kts 105°
2026-04-21 17:10 50.51743 5.86378 40555 ft 495 kts 105°
2026-04-21 17:10 50.50733 5.91520 41029 ft 490 kts 105°
2026-04-21 17:10 50.49728 5.96633 41249 ft 491 kts 105°
2026-04-21 17:10 50.48713 6.01788 41207 ft 495 kts 105°
2026-04-21 17:11 50.46689 6.12012 41212 ft 492 kts 105°
2026-04-21 17:11 50.44660 6.22209 41200 ft 488 kts 105°
2026-04-21 17:12 50.42636 6.32338 41193 ft 485 kts 105°
2026-04-21 17:12 50.41169 6.42611 41193 ft 482 kts 95°
2026-04-21 17:13 50.40404 6.53052 41207 ft 483 kts 94°
2026-04-21 17:13 50.39644 6.63530 41202 ft 485 kts 95°
2026-04-21 17:14 50.38838 6.74040 41204 ft 487 kts 95°
2026-04-21 17:14 50.38007 6.84508 41204 ft 488 kts 95°
2026-04-21 17:15 50.37157 6.95069 41220 ft 489 kts 95°
2026-04-21 17:15 50.36296 7.05661 41201 ft 490 kts 95°
2026-04-21 17:16 50.35426 7.16260 41182 ft 490 kts 95°
2026-04-21 17:16 50.34548 7.26830 41205 ft 489 kts 95°
2026-04-21 17:17 50.33662 7.37375 41196 ft 488 kts 95°
2026-04-21 17:17 50.32768 7.47900 41211 ft 488 kts 95°
2026-04-21 17:18 50.31867 7.58416 41214 ft 487 kts 96°
2026-04-21 17:18 50.30957 7.68901 41215 ft 486 kts 96°
2026-04-21 17:19 50.30046 7.79300 41227 ft 486 kts 96°
2026-04-21 17:19 50.29118 7.89763 41225 ft 486 kts 96°
2026-04-21 17:20 50.27827 8.00151 41233 ft 487 kts 100°
2026-04-21 17:20 50.26363 8.10479 41224 ft 487 kts 101°
2026-04-21 17:21 50.24894 8.20816 41229 ft 487 kts 101°
2026-04-21 17:21 50.23437 8.31157 41239 ft 488 kts 101°
2026-04-21 17:22 50.21979 8.41504 41228 ft 488 kts 101°
2026-04-21 17:22 50.20510 8.51857 41211 ft 488 kts 101°
2026-04-21 17:23 50.19043 8.62123 41213 ft 488 kts 101°
2026-04-21 17:23 50.17555 8.72461 41213 ft 488 kts 101°
2026-04-21 17:24 50.16058 8.82792 41208 ft 488 kts 101°
2026-04-21 17:24 50.14552 8.93109 41213 ft 488 kts 101°
2026-04-21 17:25 50.13037 9.03424 41211 ft 488 kts 101°
2026-04-21 17:25 50.11515 9.13722 41218 ft 488 kts 101°
2026-04-21 17:26 50.09980 9.24030 41223 ft 488 kts 101°
2026-04-21 17:26 50.08450 9.34247 41219 ft 488 kts 101°
2026-04-21 17:27 50.06899 9.44532 41210 ft 488 kts 101°
2026-04-21 17:27 50.05340 9.54807 41210 ft 487 kts 101°
2026-04-21 17:28 50.03773 9.65061 41223 ft 487 kts 101°
2026-04-21 17:28 50.02198 9.75308 41218 ft 487 kts 102°
2026-04-21 17:29 50.00613 9.85551 41214 ft 487 kts 102°
2026-04-21 17:29 49.99022 9.95775 41206 ft 487 kts 102°
2026-04-21 17:30 49.97431 10.05929 41240 ft 487 kts 102°
2026-04-21 17:30 49.95819 10.16156 41229 ft 487 kts 102°
2026-04-21 17:31 49.94200 10.26376 41225 ft 488 kts 102°
2026-04-21 17:31 49.92565 10.36602 41222 ft 488 kts 103°
2026-04-21 17:32 49.90333 10.46554 41229 ft 489 kts 110°
2026-04-21 17:32 49.87746 10.56322 41233 ft 490 kts 111°
2026-04-21 17:33 49.85158 10.66104 41221 ft 490 kts 110°
2026-04-21 17:33 49.82596 10.75892 41208 ft 490 kts 110°
2026-04-21 17:34 49.80035 10.85682 41208 ft 490 kts 110°
2026-04-21 17:34 49.77483 10.95393 41207 ft 490 kts 111°
2026-04-21 17:35 49.74905 11.05154 41195 ft 490 kts 111°
2026-04-21 17:35 49.72319 11.14904 41195 ft 490 kts 111°
2026-04-21 17:36 49.69727 11.24636 41190 ft 490 kts 111°
2026-04-21 17:36 49.67132 11.34345 41213 ft 489 kts 111°
2026-04-21 17:37 49.64653 11.44114 41189 ft 488 kts 107°
2026-04-21 17:37 49.62592 11.54077 41190 ft 487 kts 106°
2026-04-21 17:38 49.60559 11.64046 41187 ft 487 kts 106°
2026-04-21 17:38 49.58496 11.74000 41200 ft 488 kts 106°
2026-04-21 17:39 49.56406 11.83954 41205 ft 488 kts 107°
2026-04-21 17:39 49.54302 11.93911 41193 ft 489 kts 107°
2026-04-21 17:40 49.52202 12.03800 41191 ft 490 kts 107°
2026-04-21 17:40 49.50078 12.13764 41193 ft 490 kts 107°
2026-04-21 17:41 49.47944 12.23729 41197 ft 491 kts 107°
2026-04-21 17:41 49.45801 12.33682 41197 ft 490 kts 107°
2026-04-21 17:42 49.43649 12.43630 41202 ft 490 kts 107°
2026-04-21 17:42 49.41491 12.53559 41198 ft 490 kts 107°
2026-04-21 17:43 49.39328 12.63466 41208 ft 489 kts 107°
2026-04-21 17:43 49.37158 12.73363 41204 ft 489 kts 107°
2026-04-21 17:44 49.34902 12.83129 41211 ft 489 kts 109°
2026-04-21 17:44 49.32473 12.92867 41217 ft 489 kts 110°
2026-04-21 17:45 49.30048 13.02599 41216 ft 489 kts 109°
2026-04-21 17:45 49.27640 13.12336 41216 ft 489 kts 109°
2026-04-21 17:46 49.25229 13.22068 41222 ft 489 kts 109°
2026-04-21 17:46 49.22766 13.31771 41216 ft 489 kts 111°
2026-04-21 17:47 49.20163 13.41395 41233 ft 490 kts 111°
2026-04-21 17:47 49.17536 13.51008 41216 ft 490 kts 111°
2026-04-21 17:48 49.14916 13.60635 41221 ft 491 kts 111°
2026-04-21 17:48 49.12297 13.70263 41226 ft 491 kts 111°
2026-04-21 17:49 49.09668 13.79894 41235 ft 492 kts 111°
2026-04-21 17:49 49.07040 13.89475 41237 ft 493 kts 111°
2026-04-21 17:50 49.04384 13.99117 41142 ft 495 kts 111°
2026-04-21 17:50 49.03059 14.03911 40985 ft 487 kts 111°
2026-04-21 17:50 49.01752 14.08633 40584 ft 482 kts 112°
2026-04-21 17:51 49.00442 14.13359 39852 ft 487 kts 112°
2026-04-21 17:51 48.99115 14.18138 39022 ft 493 kts 112°
2026-04-21 17:51 48.97770 14.22974 38078 ft 499 kts 112°
2026-04-21 17:51 48.96408 14.27847 37211 ft 501 kts 112°
2026-04-21 17:52 48.94883 14.32611 36401 ft 502 kts 118°
2026-04-21 17:52 48.93080 14.37157 35636 ft 502 kts 123°
2026-04-21 17:52 48.90994 14.41420 34870 ft 502 kts 127°
2026-04-21 17:52 48.88847 14.45588 34102 ft 501 kts 127°
2026-04-21 17:53 48.86693 14.49757 33162 ft 501 kts 127°
2026-04-21 17:53 48.84552 14.53930 32199 ft 501 kts 127°
2026-04-21 17:53 48.82418 14.58119 31284 ft 501 kts 127°
2026-04-21 17:53 48.80302 14.62294 30538 ft 497 kts 128°
2026-04-21 17:54 48.78234 14.66376 29829 ft 492 kts 128°
2026-04-21 17:54 48.76163 14.70458 29170 ft 485 kts 128°
2026-04-21 17:54 48.74120 14.74476 28539 ft 478 kts 128°
2026-04-21 17:54 48.72101 14.78434 27879 ft 472 kts 128°
2026-04-21 17:55 48.70098 14.82345 27221 ft 468 kts 128°
2026-04-21 17:55 48.68113 14.86212 26575 ft 463 kts 128°
2026-04-21 17:55 48.66782 14.88803 26153 ft 460 kts 128°
2026-04-21 17:55 48.64829 14.92602 25561 ft 455 kts 128°
2026-04-21 17:56 48.62920 14.96311 24981 ft 451 kts 128°
2026-04-21 17:56 48.61035 15.00061 24415 ft 446 kts 124°
2026-04-21 17:56 48.59462 15.04074 23838 ft 442 kts 116°
2026-04-21 17:56 48.58230 15.08296 23188 ft 437 kts 110°
2026-04-21 17:57 48.57336 15.12651 22584 ft 431 kts 103°
2026-04-21 17:57 48.56619 15.17018 21997 ft 426 kts 103°
2026-04-21 17:57 48.55852 15.21302 21351 ft 420 kts 108°
2026-04-21 17:57 48.54557 15.25241 20662 ft 420 kts 123°
2026-04-21 17:58 48.52708 15.28609 20113 ft 415 kts 135°
2026-04-21 17:58 48.50548 15.31433 19541 ft 408 kts 141°
2026-04-21 17:58 48.48350 15.34152 18883 ft 409 kts 141°
2026-04-21 17:58 48.46162 15.36886 18270 ft 407 kts 140°
2026-04-21 17:59 48.44001 15.39602 17731 ft 402 kts 140°
2026-04-21 17:59 48.41869 15.42288 17291 ft 398 kts 140°
2026-04-21 17:59 48.39732 15.44984 17195 ft 401 kts 140°
2026-04-21 17:59 48.37604 15.47671 17206 ft 398 kts 140°
2026-04-21 18:00 48.35488 15.50339 17193 ft 397 kts 140°
2026-04-21 18:00 48.33368 15.53009 17203 ft 398 kts 140°
2026-04-21 18:00 48.31241 15.55688 17200 ft 399 kts 140°
2026-04-21 18:00 48.29114 15.58364 17190 ft 399 kts 140°
2026-04-21 18:01 48.26984 15.61042 17206 ft 400 kts 140°
2026-04-21 18:01 48.24852 15.63718 17199 ft 399 kts 140°
2026-04-21 18:01 48.22720 15.66391 17181 ft 399 kts 140°
2026-04-21 18:01 48.20589 15.69060 17193 ft 399 kts 140°
2026-04-21 18:02 48.18456 15.71728 17198 ft 400 kts 141°
2026-04-21 18:02 48.16324 15.74391 17197 ft 400 kts 141°
2026-04-21 18:02 48.14178 15.77069 16802 ft 405 kts 140°
2026-04-21 18:02 48.12008 15.79773 16188 ft 405 kts 140°
2026-04-21 18:03 48.09856 15.82452 15611 ft 401 kts 140°
2026-04-21 18:03 48.07721 15.85107 15042 ft 396 kts 140°
2026-04-21 18:03 48.05616 15.87722 14445 ft 392 kts 140°
2026-04-21 18:03 48.03525 15.90318 13846 ft 389 kts 140°
2026-04-21 18:04 48.01582 15.92962 13174 ft 379 kts 130°
2026-04-21 18:04 48.00157 15.96228 12547 ft 375 kts 114°
2026-04-21 18:04 47.99221 15.99825 11923 ft 369 kts 104°
2026-04-21 18:04 47.98606 16.03530 11307 ft 366 kts 101°
2026-04-21 18:05 47.98038 16.07222 10690 ft 364 kts 101°
2026-04-21 18:05 47.97471 16.10898 10104 ft 362 kts 100°
2026-04-21 18:05 47.96902 16.14545 9456 ft 360 kts 100°
2026-04-21 18:05 47.96331 16.18176 8801 ft 358 kts 101°
2026-04-21 18:06 47.95759 16.21778 8174 ft 356 kts 101°
2026-04-21 18:06 47.95207 16.25213 7702 ft 325 kts 100°
2026-04-21 18:06 47.94699 16.28347 7210 ft 299 kts 100°
2026-04-21 18:06 47.94230 16.31253 6715 ft 278 kts 100°
2026-04-21 18:07 47.93795 16.33954 6286 ft 259 kts 100°
2026-04-21 18:07 47.93385 16.36497 5848 ft 249 kts 99°
2026-04-21 18:07 47.92981 16.39021 5468 ft 251 kts 99°
2026-04-21 18:07 47.92572 16.41566 5052 ft 254 kts 99°
2026-04-21 18:08 47.92162 16.44097 4965 ft 243 kts 99°
2026-04-21 18:08 47.91771 16.46486 4946 ft 232 kts 99°
2026-04-21 18:08 47.91390 16.48828 4732 ft 234 kts 99°
2026-04-21 18:08 47.90985 16.51164 4458 ft 233 kts 102°
2026-04-21 18:09 47.90459 16.53441 4197 ft 232 kts 105°
2026-04-21 18:09 47.89914 16.55678 4042 ft 225 kts 105°
2026-04-21 18:09 47.89453 16.57834 3868 ft 210 kts 90°
2026-04-21 18:09 47.89565 16.59911 3742 ft 198 kts 75°
2026-04-21 18:10 47.89801 16.61926 3699 ft 202 kts 73°
2026-04-21 18:10 47.90389 16.63766 3505 ft 196 kts 42°
2026-04-21 18:10 47.91537 16.64727 3363 ft 187 kts 18°
2026-04-21 18:10 47.92756 16.65278 3210 ft 180 kts 15°
2026-04-21 18:11 47.93914 16.65732 3061 ft 166 kts
2026-04-21 18:11 47.95032 16.65305 3018 ft 169 kts 339°
2026-04-21 18:11 47.96075 16.64648 2970 ft 156 kts 343°
2026-04-21 18:11 47.97063 16.64145 2961 ft 146 kts 346°
2026-04-21 18:12 47.98049 16.63703 2869 ft 152 kts 347°
2026-04-21 18:12 47.99050 16.63273 2661 ft 147 kts 347°
2026-04-21 18:12 48.00020 16.62862 2469 ft 143 kts 347°
2026-04-21 18:12 48.00974 16.62460 2275 ft 139 kts 347°
2026-04-21 18:13 48.01855 16.62087 2083 ft 125 kts 347°
2026-04-21 18:13 48.02663 16.61748 1941 ft 119 kts 347°
2026-04-21 18:13 48.03458 16.61413 1790 ft 119 kts 347°
2026-04-21 18:13 48.04261 16.61075 1598 ft 122 kts 346°
2026-04-21 18:14 48.05908 16.60379 1249 ft 124 kts 346°
2026-04-21 18:14 48.06762 16.60017 1078 ft 128 kts 345°
2026-04-21 18:14 48.07612 16.59661 872 ft 124 kts 344°
2026-04-21 18:15 48.08426 16.59317 726 ft 124 kts 345°
2026-04-21 18:15 48.09272 16.58959 643 ft 127 kts 345°
2026-04-21 18:15 48.10047 16.58633 628 ft 97 kts 344°
2026-04-21 18:15 48.10517 16.58437 626 ft 43 kts 345°
2026-04-21 18:16 48.10734 16.58343 623 ft 30 kts 343°
2026-04-21 18:16 48.10926 16.58254 620 ft 25 kts 333°
2026-04-21 18:16 48.11037 16.58080 626 ft 21 kts 297°
2026-04-21 18:16 48.11077 16.57957 624 ft 11 kts 296°
2026-04-21 18:17 48.11110 16.57855 627 ft 11 kts 296°
2026-04-21 18:17 48.11143 16.57754 629 ft 12 kts 297°
2026-04-21 18:17 48.11191 16.57616 625 ft 16 kts 298°
2026-04-21 18:17 48.11241 16.57465 621 ft 16 kts 296°
2026-04-21 18:18 48.11291 16.57315 629 ft 16 kts 296°
2026-04-21 18:18 48.11340 16.57164 622 ft 16 kts 295°
2026-04-21 18:18 48.11389 16.57013 624 ft 16 kts 295°
2026-04-21 18:18 48.11437 16.56861 622 ft 16 kts 296°
2026-04-21 18:19 48.11485 16.56710 628 ft 16 kts 295°
2026-04-21 18:19 48.11534 16.56559 623 ft 16 kts 296°
2026-04-21 18:19 48.11584 16.56409 626 ft 16 kts 296°
2026-04-21 18:19 48.11634 16.56258 623 ft 16 kts 297°
2026-04-21 18:20 48.11683 16.56108 624 ft 16 kts 296°
2026-04-21 18:20 48.11731 16.55957 622 ft 16 kts 295°
2026-04-21 18:20 48.11774 16.55855 629 ft 9 kts 322°
2026-04-21 18:20 48.11834 16.55853 618 ft 10 kts 25°
2026-04-21 18:21 48.11884 16.55897 629 ft 1 kts 48°
2026-04-21 18:21 48.11885 16.55908 629 ft 1 kts 77°
2026-04-21 18:21 48.11883 16.55918 626 ft 1 kts 107°
2026-04-21 18:21 48.11876 16.55940 627 ft 4 kts 117°
2026-04-21 18:22 48.11865 16.55967 625 ft 2 kts 121°
2026-04-21 18:22 48.11858 16.55984 624 ft 0 kts 122°